Location: Nashville
(36.1660°N, 86.7840°W)
Time: 12:08:40
(UTC-05:00)

Hubble Space Telescope - Visible Passes

Search period start: 29 May 2024 00:00
Search period end: 08 June 2024 00:00
Orbit: 511 x 515 km, 28.5° (Epoch: 29 May)

Date Brightness Start Highest point End Pass type
(mag) Time Alt. Az. Time Alt. Az. Time Alt. Az.
29 May 2.1 21:48:30 10° WSW 21:51:03 24° SSW 21:51:03 24° SSW visible
30 May 1.9 21:29:41 10° WSW 21:33:00 25° S 21:33:18 25° S visible
31 May 2.0 21:10:53 10° WSW 21:14:09 24° S 21:15:29 20° SSE visible
01 Jun 2.1 20:52:04 10° WSW 20:55:17 23° S 20:57:37 14° SE visible
02 Jun 2.2 20:33:16 10° WSW 20:36:25 22° S 20:39:33 10° SE visible
